Regional Weather Roundup
Issued by NWS

Home | Current Version | Previous Version | Text Only | Print | Product List | Glossary Off
Versions: 1 2 3 4 5 6 7 8 9 10 11 12 13 14 15 16 17 18 19 20 21 22 23 24 25 26 27

000
ASUS45 KSLC 231110
RWRUT

UTAH REGIONAL WEATHER ROUNDUP
NATIONAL WEATHER SERVICE SALT LAKE CITY UT
500 AM MDT MON APR 23 2018

UTZ001>011-023>025-231200-

NORTHERN UTAH

CITY           SKY/WX    TMP DP  RH WIND       PRES   REMARKS
BRIGHAM CITY   CLOUDY    48  42  79 N17G24    30.12R
HILL AFB       LGT RAIN  49  39  69 N36G49    30.09R
LOGAN          RAIN      49  41  74 NE16G22   30.12R
OGDEN          RAIN      48  40  73 MISG      30.07R
SALT LAKE CITY MOCLDY    55  39  54 NW18      30.09R
TOOELE VALLEY  DRIZZLE   52  43  71 N10       30.11R
WENDOVER       PTCLDY    57  30  35 NW17G26   30.04R
HEBER CITY       N/A     41  32  70 N3        30.00R
WEST JORDAN    CLOUDY    51  41  67 NW17      30.11R

$$

UTZ011>015-024>027-231200-

CENTRAL/NORTHEAST UTAH

CITY           SKY/WX    TMP DP  RH WIND       PRES   REMARKS
PROVO AIRPORT  MOCLDY    56  41  57 NW20      30.03R
MOAB/CANYONLAN PTCLDY    49  26  41 CALM      29.98R
DELTA          PTCLDY    46  34  61 N5        30.02R
PRICE          PTCLDY    46  25  43 CALM      30.03S
ROOSEVELT      PTCLDY    43  32  65 NW3       30.02F
VERNAL         CLEAR     47  33  58 CALM      30.01R

$$

UTZ013>016-019>022-027-231200-

SOUTHERN UTAH

CITY           SKY/WX    TMP DP  RH WIND       PRES   REMARKS
BRYCE CANYON   PTCLDY    28  20  71 SW5       30.18R WCI  23
CEDAR CITY     CLEAR     49  27  42 SE9       30.06R
MILFORD        CLEAR     52  27  38 SW15      30.02R
ST GEORGE      MOSUNNY   57  25  29 CALM      29.96R
HANKSVILLE     PTCLDY    46  18  31 CALM      30.01S
BLANDING         N/A     47  20  35 NE6       30.16S

$$

REGIONAL REPORTS     COLORADO/ARIZONA

CITY           SKY/WX    TMP DP  RH WIND       PRES   REMARKS
CRAIG, CO      CLEAR     33  30  88 CALM      30.09R
GRAND JUNCTION PTCLDY    49  33  54 E10       30.03S
RIFLE, CO      CLEAR     40  36  86 E5        30.09R
MONTROSE, CO   CLEAR     42  30  62 SE7       30.11R
CORTEZ, CO     CLEAR     33  21  61 E5        30.12R WCI  29
COLORADO CITY    N/A     39  28  65 SE7       30.09R WCI  34
PAGE, AZ       CLEAR     59  24  26 W6        30.01R
GRAND CANYON   CLEAR     29  16  58 CALM      30.17S
KINGMAN, AZ    CLEAR     57  19  22 VRB6      29.99S
FLAGSTAFF, AZ  CLEAR     34  16  47 CALM      30.18S

$$

REGIONAL REPORTS    NEVADA/IDAHO/WYOMING

CITY           SKY/WX    TMP DP  RH WIND       PRES   REMARKS
LAS VEGAS, NV  PTCLDY    74  27  17 S12       29.88R
ELY, NY        CLEAR     34  24  67 S9        30.12R WCI  27
ELKO, NV       CLEAR     37  31  78 SW3       30.14R
POCATELLO, ID  CLOUDY    45  37  73 SW9       30.08R
BURLEY, ID     CLEAR     40  25  55 W14G30    30.09R WCI  32
FORT BRIDGER,    N/A     45  25  46 W5        30.06F
EVANSTON, WY   PTCLDY    45  27  49 N7        30.05S
ROCK SPRINGS,  PTCLDY    47  25  42 S6        30.02S
KEMMERER, WY   CLOUDY    43  30  61 N6        30.03F

$$




USA.gov is the U.S. government's official web portal to all federal, state and local government web resources and services.